Location: Diebersbach
(48.5163°N, 8.0558°E)
Time: 10:54:41
(UTC+00:00)

BREEZE-M DEB (TANK) - Pass Details

Date: 20 June 2021
Orbit: 332 x 16574 km, 49.3° (Epoch: 27 July)

Event Time Altitude Azimuth Distance (km) Brightness Sun altitude
Rises 02:00:42 0° 282° (WNW) 2,600 5.5 -10.5°
Reaches altitude 10° 02:03:00 10° 281° (WNW) 1,382 4.1 -10.3°
Maximum altitude 02:05:27 83° 193° (SSW) 341 1.2 -10.0°
Drops below altitude 10° 02:08:02 10° 106° (ESE) 1,458 4.8 -9.8°
Sets 02:10:32 0° 105° (ESE) 2,781 6.2 -9.5°
